#timestamp,LO_Frequency,Hit,StdDev 
1557972015.7,286047000.1,N
1557972035.5,286047001.1,N
1557972055.4,286047001.2,N
1557972075.2,286047000.6,N
1557972095.0,286047002.3,N
1557972095.9,286047002.3,N
1557972115.8,286047004.1,N
1557972135.6,286047001.7,N
1557972155.5,286047003.8,N
1557972175.3,286047001.1,N
1557972195.1,286047001.0,N
1557972215.9,286047001.0,N
1557972235.7,286047000.8,N
1557972255.5,286047002.5,N
1557972275.4,286047003.6,N
1557972295.2,286047004.0,N
1557972315.1,286047000.2,N
1557972316.0,286047000.2,N
1557972335.8,286047000.1,N
1557972355.6,286047000.0,N
1557972375.5,286047002.1,N
1557972395.3,286047001.5,N
1557972415.2,286047005.2,Y
1557972435.9,286047005.6,P
1557972455.7,286047007.6,P
1557972475.6,286047003.3,N
1557972495.4,286047001.5,N
1557972515.2,286047002.0,N
1557972535.1,286046999.8,N
1557972536.0,286046999.8,N
1557972555.8,286047000.2,N
1557972575.7,286047000.2,N
1557972595.5,286046998.6,N
1557972615.3,286046998.4,N
1557972635.2,286046998.1,N
1557972655.0,286046998.6,N
1557972655.9,286046998.6,N
1557972675.8,286047000.1,N
1557972695.6,286047002.2,N
1557972715.4,286047000.0,N
1557972735.3,286047000.5,N
1557972755.1,286046999.8,N
1557972775.8,286047000.5,N
1557972795.7,286046998.6,N
1557972815.5,286046998.2,N
1557972835.4,286047001.2,N
1557972855.2,286047000.6,N
1557972875.0,286047004.0,N
1557972875.9,286047004.0,N
1557972895.8,286047001.0,N
1557972915.6,286046999.1,N
1557972935.5,286046996.9,N
1557972955.3,286046998.4,N
1557972975.1,286046998.4,N
1557972995.9,286046999.5,N
1557973015.7,286046996.5,N
1557973035.5,286046999.5,N
1557973055.4,286046996.5,N
1557973075.2,286046996.6,N
1557973095.1,286046996.9,N
1557973096.0,286046996.9,N
1557973115.8,286046999.5,N
1557973135.6,286046996.7,N
1557973155.5,286046996.9,N
1557973175.3,286046997.0,N
1557973195.2,286046997.0,N
1557973215.9,286046998.4,N
1557973235.7,286046999.3,N
1557973255.6,286046996.6,N
1557973275.4,286046997.5,N
1557973295.2,286046995.2,N
1557973315.1,286046999.1,N
1557973316.0,286046999.1,N
1557973335.8,286046997.4,N
1557973355.7,286046999.1,N
1557973375.5,286046998.3,N
1557973395.3,286046997.5,N
1557973415.2,286046997.7,N
1557973435.0,286046994.9,Y
1557973435.9,286046994.9,P
1557973455.8,286046999.3,N
1557973475.6,286046996.7,N
1557973495.4,286046995.0,Y
1557973515.3,286046998.1,P
1557973535.1,286046999.1,N
1557973555.9,286046999.5,N
1557973575.7,286046999.0,N
1557973595.5,286046999.3,N
1557973615.4,286046999.5,N
1557973635.2,286046999.4,N
1557973655.0,286046999.2,N
1557973655.9,286046999.2,N
1557973675.8,286046999.2,N
1557973695.6,286046998.7,N
1557973715.5,286046998.6,N
1557973735.3,286046998.1,Y
1557973755.1,286046998.3,P
1557973775.9,286047000.6,N
1557973795.7,286046999.7,N
1557973815.5,286047002.3,N
1557973835.4,286047002.0,N
1557973855.2,286047000.0,N
1557973875.1,286047002.6,N
1557973876.0,286047002.6,N
1557973895.8,286047000.2,N
1557973915.6,286047000.5,N
1557973935.5,286046998.7,N
1557973955.3,286046997.3,N
1557973975.1,286046999.2,N
1557973995.9,286046998.6,N
1557974015.7,286047002.8,N
1557974035.6,286046999.9,N
1557974055.4,286047002.2,N
1557974075.2,286047001.8,N
1557974095.1,286046999.7,N
1557974096.0,286046999.7,N
1557974115.8,286047002.8,N
1557974135.1,286047002.8,N
1557974155.9,286047001.6,N
1557974175.7,286047002.3,N
1557974195.5,286047002.7,N
1557974215.4,286047002.5,N
1557974235.2,286047004.0,N
1557974255.0,286046999.8,N
1557974255.9,286046999.8,N
1557974275.8,286046999.7,N
1557974295.6,286047000.0,N
1557974315.4,286047000.5,N
1557974335.3,286046999.8,N
1557974355.1,286047004.0,N
1557974375.9,286047002.1,N
1557974395.7,286047002.6,N
1557974415.5,286047001.9,N
1557974435.4,286047003.9,N
1557974455.2,286047003.9,N
1557974475.0,286047002.1,N
1557974475.9,286047002.1,N
1557974495.8,286047002.0,N
1557974515.6,286047003.9,N
1557974535.5,286047004.7,Y
1557974555.3,286047002.3,P
1557974575.1,286047002.1,P
1557974595.9,286047002.8,P
1557974615.7,286047001.1,N
1557974635.5,286047000.8,N
1557974655.4,286047000.5,N
1557974675.2,286047002.4,Y
1557974695.1,286047000.6,P
1557974696.0,286047000.6,N
1557974715.8,286047002.5,P
1557974735.6,286046999.9,N
1557974755.5,286046998.1,N
1557974775.3,286046998.8,N
1557974795.1,286046999.3,N
1557974815.9,286047002.3,N
1557974835.7,286047000.1,N
1557974855.6,286047000.1,N
1557974875.4,286047000.8,N
1557974895.2,286047002.8,N
1557974915.1,286047000.3,N
1557974916.0,286047000.3,N
1557974935.8,286047001.7,N
1557974955.7,286047001.3,N
1557974975.5,286047002.8,N
1557974995.3,286047002.8,N
1557975015.2,286047000.1,N
1557975035.0,286047000.3,N
1557975035.9,286047000.3,N
1557975055.7,286046998.5,N
1557975075.6,286047000.5,N
1557975095.4,286047002.3,N
1557975115.3,286047003.8,N
1557975135.1,286047001.8,N
1557975136.0,286047001.8,N
1557975155.8,286047002.2,N
1557975175.7,286047002.1,N
1557975195.5,286047002.6,N
1557975215.3,286047000.3,N
1557975235.2,286047000.2,N
1557975255.0,286047002.4,N
1557975255.9,286047002.4,N
1557975275.8,286047002.3,N
1557975295.6,286047002.3,N
1557975315.4,286047001.3,N
1557975335.3,286047004.4,Y
1557975355.1,286047003.6,P
1557975375.9,286047003.7,P
1557975395.7,286047002.3,N
1557975415.5,286046999.3,N
1557975435.4,286046996.7,N
1557975455.2,286046996.6,N
1557975475.0,286046998.1,N
1557975475.9,286046998.1,N
1557975495.8,286046999.9,N
1557975515.6,286047003.9,N
1557975535.5,286047005.4,N
1557975555.3,286047006.0,N
1557975575.1,286047003.2,N
1557975595.9,286047003.1,N
